2019-096B (44906 NORAD) Tracking and Keplerian Element Data

This shows tracking and keplerian element data for the satellite.

Feedback or suggestion? Click here.




ElementValue
Catalog44906
Name2019-096B
Epoch Orbit266
Epoch Day17.47556579
Epoch Year2020
RAAN97.0207
Inclination82.5233
Eccentricity0.0004512
Argument of Perigee281.461
Mean Anonmoly78.5964
Mean Motion12.40787566
Decay Rate1.05E-06
L11 44906U 19096B 20017.47556579 .00000105 00000-0 70396-3 0 9990
L22 44906 82.5233 97.0207 0004512 281.4610 78.5964 12.40787566 2666

Live tracking and technical data element details for 2019-096B (NORAD 44906). 2019-096B can be tracked NOW for your location showing map with azimuth and elevation plus other details from your city location.

Track the satellite on the map from your city or location and see movement details for azimuth, elevation, latitude, longitude, range, height, and movement on the map or in text.







IsCatalogInMostPopularTable: catalog: 44906, numindb: 4
Update: records affected: 1



GetName: 44906 2019-096B

Hit Count: updated at: Mon, 20 Jan 2020 02:52:50 GMT